[[{"header":{"parameterUnit":"m.s-1","parameterCategory":1,"la1":30.2992,"la2":30.254,"lo1":-89.0895,"lo2":-89.0443,"dy":0.0025,"dx":0.0025,"nx":19,"ny":19,"refTime":"2026-03-12T03:00:00:Z","depth":0,"parameterNumber":2,"parameterNumberName":"U-component_of_WINDS"},"data":[0,0,0,-0.9739,-0.9739,-0.9775,-0.9775,-0.9812,-0.9812,0,0,0,0,0,0,0,0,0,0,0,-0.9725,-0.9725,-0.9739,-0.9739,-0.9775,-0.9775,-0.9812,-0.9813,0,0,0,0,0,0,0,0,0,0,0,-0.9725,-0.9725,-0.9725,-0.974,-0.9775,-0.9775,-0.9812,-0.9788,0,0,0,0,0,0,0,0,0,0,-0.9755,-0.9739,-0.9725,-0.9725,-0.974,-0.9775,-0.9775,-0.9787,-0.9789,-0.9793,0,-0.9797,0,-0.9805,-0.9815,-0.9815,0,0,0,-0.9742,-0.9737,-0.975,-0.9725,-0.974,-0.9775,-0.976,-0.9788,-0.9791,-0.9796,-0.9798,-0.9799,-0.9806,-0.9815,-0.9815,-0.9833,-0.9832,0,0,-0.974,-0.9729,-0.9748,-0.9751,-0.9747,-0.9758,-0.9761,-0.979,-0.979,-0.9798,-0.98,-0.9807,-0.9815,-0.9815,-0.9833,-0.9833,0,0,0,-0.9733,-0.9728,-0.974,-0.975,-0.9757,-0.9759,-0.9762,-0.9789,-0.9794,-0.9801,-0.9807,-0.9815,-0.9816,-0.9833,-0.9833,-0.9822,0,0,0,-0.9732,-0.9724,-0.9739,-0.9733,-0.9756,-0.9774,-0.976,-0.9792,-0.9795,-0.9807,-0.9815,-0.9816,-0.9833,-0.9833,-0.9822,-0.9818,0,0,0,-0.9724,-0.9723,-0.9727,-0.9732,-0.9747,-0.9773,-0.978,-0.9793,-0.9799,-0.9815,-0.9816,-0.9833,-0.9833,-0.9823,-0.9819,-0.982,0,0,0,-0.9712,-0.9717,-0.9726,-0.9734,-0.9747,-0.9767,-0.978,-0.9795,-0.9807,-0.9815,-0.9833,-0.9833,-0.9823,-0.9819,-0.982,-0.9819,-0.9817,0,0,-0.9712,-0.9716,-0.9721,-0.9731,-0.9747,-0.9762,-0.9776,-0.9796,-0.9807,-0.9823,-0.9823,-0.9822,-0.9819,-0.982,-0.9813,-0.9812,0,0,0,-0.9718,-0.9721,-0.9728,-0.9739,-0.9756,-0.9769,-0.9788,-0.9796,-0.981,-0.9814,-0.9823,-0.9822,-0.9822,-0.9822,-0.9821,-0.9822,-0.9832,-0.9832,-0.9832,-0.9702,-0.9716,-0.9725,-0.9743,-0.9754,-0.9774,-0.9783,-0.9796,-0.9807,-0.9808,-0.9813,-0.9808,-0.9807,-0.9806,-0.9807,-0.9814,-0.9814,-0.9814,-0.9814,-0.9703,-0.971,-0.9724,-0.9738,-0.9751,-0.9763,-0.9781,-0.9788,-0.9799,-0.9805,-0.9807,-0.9812,-0.9804,-0.9806,-0.9813,-0.9813,-0.9813,-0.9813,-0.9813,-0.9695,-0.9701,-0.971,-0.9728,-0.9739,-0.9756,-0.9767,-0.9779,-0.979,-0.9791,-0.9797,-0.9798,-0.9799,-0.9793,-0.9793,-0.9793,-0.9793,-0.9793,-0.9793,-0.9682,-0.9693,-0.9702,-0.9719,-0.9727,-0.974,-0.9759,-0.9767,-0.9779,-0.9787,-0.9787,-0.9796,-0.9802,-0.9802,-0.9793,-0.9793,-0.9793,-0.9793,-0.9793,-0.9678,-0.9681,-0.9694,-0.9702,-0.9723,-0.9733,-0.9748,-0.9763,-0.9772,-0.9776,-0.9785,-0.9787,-0.9792,-0.9793,-0.9794,-0.9783,-0.9783,-0.9783,-0.9783,-0.9671,-0.9675,-0.969,-0.9703,-0.9717,-0.9731,-0.9743,-0.9757,-0.9773,-0.9778,-0.9781,-0.9783,-0.9784,-0.9789,-0.979,-0.979,-0.9779,-0.9779,-0.9779,-0.9669,-0.9675,-0.9684,-0.97,-0.9716,-0.9729,-0.9741,-0.9754,-0.9771,-0.9779,-0.9783,-0.9783,-0.9786,-0.9787,-0.9795,-0.9796,-0.9798,0,0]},{"header":{"parameterUnit":"m.s-1","parameterCategory":1,"la1":30.2992,"la2":30.254,"lo1":-89.0895,"lo2":-89.0443,"dy":0.0025,"dx":0.0025,"nx":19,"ny":19,"refTime":"2026-03-12T03:00:00:Z","depth":0,"parameterNumber":3,"parameterNumberName":"V-component_of_WINDS"},"data":[0,0,0,5.9989,5.9991,6.0072,6.0072,6.0179,6.018,0,0,0,0,0,0,0,0,0,0,0,5.9969,5.997,5.9989,5.9991,6.0072,6.0072,6.0179,6.018,0,0,0,0,0,0,0,0,0,0,0,5.9968,5.997,5.9971,5.9991,6.0072,6.0072,6.0179,6.0116,0,0,0,0,0,0,0,0,0,0,6.0037,6.0022,5.9969,5.9971,5.9992,6.0072,6.0072,6.0113,6.012,6.0145,0,6.017,0,6.0177,6.0188,6.0188,0,0,0,5.9987,6.0016,6.0035,5.9971,5.9993,6.0072,6.0034,6.0117,6.0125,6.0154,6.0171,6.0175,6.0179,6.0189,6.0189,6.0353,6.0354,0,0,5.9983,5.9985,6.003,6.0041,6.003,6.0032,6.0037,6.0122,6.0139,6.0172,6.0177,6.0181,6.019,6.019,6.0352,6.0353,0,0,0,5.9973,5.9982,5.9998,6.0036,6.0051,6.0034,6.004,6.0135,6.0141,6.0179,6.0182,6.019,6.0192,6.0351,6.0352,6.0404,0,0,0,5.997,5.9976,5.9997,5.9998,6.0049,6.0094,6.0052,6.0135,6.0144,6.0181,6.019,6.0193,6.035,6.0352,6.04,6.0428,0,0,0,5.9962,5.9975,5.9988,5.9998,6.0034,6.0093,6.0103,6.0137,6.0147,6.0188,6.0193,6.0349,6.0351,6.0397,6.0423,6.0475,0,0,0,5.9954,6.0029,5.9989,6.0074,6.0033,6.0124,6.0103,6.0169,6.0211,6.0191,6.035,6.0352,6.0396,6.0419,6.0471,6.0521,6.0542,0,0,6.005,6.004,6.0091,6.0057,6.0157,6.0112,6.0219,6.0253,6.0252,6.0319,6.0323,6.0402,6.0422,6.0474,6.065,6.0667,0,0,0,6.0122,6.0158,6.0184,6.0226,6.0257,6.0286,6.0304,6.0318,6.0375,6.0288,6.0433,6.0445,6.0475,6.0499,6.0513,6.0541,6.0362,6.0362,6.0362,6.026,6.026,6.0344,6.0355,6.0396,6.0417,6.045,6.0471,6.0454,6.0489,6.051,6.0617,6.0645,6.0655,6.0684,6.0533,6.0534,6.0534,6.0534,6.0403,6.0456,6.0438,6.0514,6.0513,6.0575,6.0599,6.0586,6.0645,6.06,6.0627,6.0581,6.0673,6.0698,6.0538,6.0537,6.0537,6.0536,6.0536,6.0496,6.0522,6.0539,6.0603,6.0652,6.0658,6.0717,6.0712,6.0708,6.0734,6.0758,6.0757,6.0758,6.0745,6.0746,6.0746,6.0746,6.0747,6.0747,6.0587,6.0605,6.0656,6.0698,6.0727,6.0764,6.0787,6.0814,6.0844,6.0836,6.0836,6.0819,6.0682,6.0649,6.0753,6.0752,6.0751,6.075,6.075,6.0736,6.0703,6.0783,6.0812,6.0863,6.0914,6.0908,6.0965,6.0986,6.1016,6.0994,6.0892,6.0882,6.0871,6.0844,6.0992,6.0992,6.0992,6.0992,6.0817,6.0812,6.0896,6.0944,6.0989,6.0993,6.1085,6.1104,6.1118,6.1132,6.1109,6.1072,6.1061,6.1057,6.1042,6.1018,6.1206,6.1207,6.1207,6.0911,6.0911,6.0991,6.1008,6.1048,6.1082,6.1169,6.1224,6.1232,6.1216,6.1144,6.1135,6.1075,6.1055,6.1038,6.1015,6.0969,0,0]}]]